Waarnemingen

Advertentie
Mijn weer
Altnaharra, Groot Brittannië (3044): temperatuur & dauwpunt: 22.05.2018 06:00:00 - 28.05.2018 06:00:00 (BST)Altnaharra, Groot Brittannië (3044): temperatuur -20cm & temperatuur -100cm: 22.05.2018 06:00:00 - 28.05.2018 06:00:00 (BST)Altnaharra, Groot Brittannië (3044): windsnelheid: 22.05.2018 06:00:00 - 28.05.2018 06:00:00 (BST)Altnaharra, Groot Brittannië (3044): windrichting: 22.05.2018 06:00:00 - 28.05.2018 06:00:00 (BST)Altnaharra, Groot Brittannië (3044): luchtdruk: 22.05.2018 06:00:00 - 28.05.2018 06:00:00 (BST)Altnaharra, Groot Brittannië (3044): zicht: 22.05.2018 06:00:00 - 28.05.2018 06:00:00 (BST)Altnaharra, Groot Brittannië (3044): Zonneschijnduur: 22.05.2018 06:00:00 - 28.05.2018 06:00:00 (BST)Altnaharra, Groot Brittannië (3044): neerslag: 22.05.2018 06:00:00 - 28.05.2018 06:00:00 (BST)
Datum & Tijd tt [°C] td [°C] tt -20cm [°C] tt -100cm [°C] ff [km/u] ff [kn] dd ppp [hPa] vv [km] sd [min] rr [mm]
28.05.2018 06:00:00 7,7 6,8 - - 2 1 O 1022,1 35 30 0,0
28.05.2018 05:00:00 6,0 5,4 - - 8 4 OZO 1022,0 28 0 0,0
28.05.2018 04:00:00 5,5 4,5 - - 5 3 WNW 1022,0 40 0 0,0
28.05.2018 03:00:00 5,5 4,3 - - 4 2 W 1022,0 40 0 0,0
28.05.2018 02:00:00 7,2 5,3 - - 4 2 NNW 1021,8 45 0 0,0
28.05.2018 01:00:00 7,0 4,4 - - 5 3 WNW 1022,1 45 - 0,0
28.05.2018 00:00:00 9,1 5,3 - - 5 3 NW 1022,2 50 0 0,0
27.05.2018 23:00:00 11,0 5,6 - - 9 5 NNW 1022,2 45 0 0,0
27.05.2018 22:00:00 13,7 5,1 - - 8 4 WNW 1021,7 40 6 0,0
27.05.2018 21:00:00 19,6 4,2 - - 8 4 ZO 1020,9 45 54 0,0
27.05.2018 20:00:00 20,1 5,4 - - 13 7 ZO 1020,9 35 60 0,0
27.05.2018 19:00:00 20,8 6,5 - - 29 16 O 1020,9 50 60 0,0
27.05.2018 18:00:00 22,3 6,3 - - 31 17 OZO 1020,8 45 60 0,0
27.05.2018 17:00:00 23,1 5,2 - - 31 17 O 1021,2 30 60 0,0
27.05.2018 16:00:00 23,2 4,8 - - 29 16 O 1021,8 30 60 0,0
27.05.2018 15:00:00 23,0 4,1 - - 29 16 O 1022,5 50 60 0,0
27.05.2018 14:00:00 22,4 3,5 - - 26 14 O 1023,4 30 60 0,0
27.05.2018 13:00:00 21,3 2,3 - - 28 15 OZO 1024,1 40 60 0,0
27.05.2018 12:00:00 21,1 1,4 - - 22 12 O 1024,8 40 60 0,0
27.05.2018 11:00:00 20,2 0,7 - - 22 12 NO 1025,6 30 60 0,0
27.05.2018 10:00:00 18,0 -0,5 12,7 9,7 16 9 ONO 1026,1 50 60 0,0
27.05.2018 09:00:00 13,3 5,8 - - 8 4 WZW 1027,1 45 60 0,0
27.05.2018 08:00:00 10,0 9,1 - - 4 2 ZZO 1027,7 40 60 0,0
27.05.2018 07:00:00 6,8 6,8 - - 2 1 N 1028,3 29 60 0,0
27.05.2018 06:00:00 3,3 3,3 - - 2 1 ZO 1028,6 8 24 0,0
27.05.2018 05:00:00 0,9 0,6 - - 5 3 W 1029,2 0,1 0 0,0
27.05.2018 04:00:00 2,4 2,1 - - 2 1 Z 1029,7 9 0 0,0
27.05.2018 03:00:00 2,6 2,4 - - 8 4 W 1030,6 3,3 0 0,0
27.05.2018 02:00:00 3,7 3,2 - - 2 1 W 1031,0 9 0 0,0
27.05.2018 01:00:00 5,1 4,4 - - 2 1 WNW 1031,5 7 - 0,0
27.05.2018 00:00:00 8,1 6,1 - - 8 4 ZZO 1031,6 19 0 0,0
26.05.2018 23:00:00 9,6 7,0 - - 8 4 ZO 1031,4 20 0 0,0
26.05.2018 22:00:00 12,8 7,8 - - 5 3 Z 1031,2 50 36 0,0
26.05.2018 21:00:00 17,1 8,4 - - 16 9 ONO 1030,6 50 60 0,0
26.05.2018 20:00:00 19,1 8,0 - - 21 11 NO 1030,1 45 60 0,0
26.05.2018 19:00:00 20,9 5,9 - - 18 10 O 1030,2 45 60 0,0
26.05.2018 18:00:00 21,7 6,6 - - 21 11 O 1030,4 35 60 0,0
26.05.2018 17:00:00 21,9 6,9 - - 24 13 ONO 1030,4 30 60 0,0
26.05.2018 16:00:00 22,1 8,5 - - 18 10 ONO 1030,8 29 60 0,0
26.05.2018 15:00:00 22,0 9,1 - - 16 9 O 1031,1 30 60 0,0
26.05.2018 14:00:00 21,0 8,2 - - 16 9 O 1031,3 50 60 0,0
26.05.2018 13:00:00 20,5 8,2 - - 18 10 O 1031,3 40 60 0,0
26.05.2018 12:00:00 18,1 9,7 - - 8 4 ZO 1031,6 27 60 0,0
26.05.2018 11:00:00 15,5 8,9 - - 5 3 O 1032,2 35 60 0,0
26.05.2018 10:00:00 13,0 7,8 12,2 9,7 5 3 OZO 1032,5 29 60 0,0
26.05.2018 09:00:00 11,3 7,7 - - 5 3 Z 1032,6 28 54 0,0
26.05.2018 08:00:00 9,4 7,1 - - 8 4 O 1032,7 30 6 0,0
26.05.2018 07:00:00 8,7 7,0 - - 4 2 NNO 1032,9 35 0 0,0
26.05.2018 06:00:00 7,7 6,4 - - 15 8 NO 1032,5 21 0 0,0
26.05.2018 05:00:00 8,1 6,8 - - 15 8 N 1032,8 16 0 0,0
26.05.2018 04:00:00 8,6 7,3 - - 9 5 NNO 1032,5 22 0 0,0
26.05.2018 03:00:00 9,0 7,6 - - 11 6 NO 1032,5 14 0 0,0
26.05.2018 02:00:00 9,5 8,0 - - 11 6 NO 1032,8 22 0 0,0
26.05.2018 01:00:00 9,7 8,5 - - 8 4 NNW 1032,7 21 - 0,0
26.05.2018 00:00:00 9,6 8,5 - - 5 3 N 1032,5 18 0 0,0
25.05.2018 23:00:00 9,5 8,4 - - 8 4 N 1032,6 18 0 0,0
25.05.2018 22:00:00 9,7 8,2 - - 8 4 N 1032,6 40 0 0,0
25.05.2018 21:00:00 9,8 8,2 - - 8 4 N 1032,3 40 0 0,0
25.05.2018 20:00:00 9,9 8,0 - - 13 7 N 1032,1 45 0 0,0
25.05.2018 19:00:00 11,0 7,9 - - 13 7 N 1031,8 30 6 0,0
25.05.2018 18:00:00 11,9 8,3 - - 13 7 N 1031,5 50 0 0,0
25.05.2018 17:00:00 12,2 8,2 - - 13 7 NNW 1031,4 45 0 0,0
25.05.2018 16:00:00 13,2 9,1 - - 15 8 NNO 1031,1 50 0 0,0
25.05.2018 15:00:00 13,2 9,0 - - 13 7 N 1030,9 40 0 0,0
25.05.2018 14:00:00 12,6 8,8 - - 15 8 NNW 1030,9 45 0 0,0
25.05.2018 13:00:00 12,5 8,6 - - 11 6 N 1030,8 40 0 0,0
25.05.2018 12:00:00 13,3 9,3 - - 9 5 ONO 1030,2 40 6 0,0
25.05.2018 11:00:00 13,2 9,2 - - 9 5 N 1030,0 50 0 0,0
25.05.2018 10:00:00 12,3 9,1 12,2 9,4 15 8 NW 1029,9 50 0 0,0
25.05.2018 09:00:00 11,9 8,7 - - 13 7 NNW 1029,6 50 0 0,0
25.05.2018 08:00:00 11,5 8,8 - - 16 9 NNW 1029,2 40 0 0,0
25.05.2018 07:00:00 10,6 9,7 - - 13 7 NW 1028,7 26 0 0,0
25.05.2018 06:00:00 8,8 8,5 - - 4 2 OZO 1028,0 9 0 0,0
25.05.2018 05:00:00 8,2 7,8 - - 2 1 NW 1027,5 11 0 0,0
25.05.2018 04:00:00 8,3 7,9 - - 4 2 WNW 1027,1 17 0 0,0
25.05.2018 03:00:00 8,9 8,2 - - 2 1 Z 1026,5 12 0 0,0
25.05.2018 02:00:00 9,2 8,4 - - 2 1 WNW 1026,4 20 0 0,0
25.05.2018 01:00:00 9,0 8,0 - - 0 0 N 1026,1 25 - 0,0
25.05.2018 00:00:00 10,4 8,7 - - 8 4 WNW 1025,9 27 0 0,0
24.05.2018 23:00:00 10,6 7,7 - - 8 4 W 1025,5 50 0 0,0
24.05.2018 22:00:00 12,5 8,2 - - 8 4 W 1024,8 45 0 0,0
24.05.2018 21:00:00 15,8 8,9 - - 5 3 NNW 1024,2 45 18 0,0
24.05.2018 20:00:00 18,4 9,2 - - 11 6 NNO 1023,4 45 60 0,0
24.05.2018 19:00:00 19,6 9,5 - - 13 7 NW 1023,2 45 60 0,0
24.05.2018 18:00:00 19,9 9,3 - - 18 10 NW 1023,0 50 54 0,0
24.05.2018 17:00:00 20,8 8,7 - - 22 12 WNW 1022,8 45 60 0,0
24.05.2018 16:00:00 21,6 9,4 - - 16 9 NNW 1022,7 40 60 0,0
24.05.2018 15:00:00 22,7 4,9 - - 9 5 ZO 1022,5 35 60 0,0
24.05.2018 14:00:00 22,5 2,5 - - 5 3 NO 1023,0 30 60 0,0
24.05.2018 13:00:00 21,6 1,4 - - 8 4 W 1023,4 45 60 0,0
24.05.2018 12:00:00 20,6 5,0 - - 5 3 ZZO 1023,8 28 60 0,0
24.05.2018 11:00:00 18,4 9,6 - - 4 2 O 1024,1 45 60 0,0
24.05.2018 10:00:00 15,9 9,5 11,2 9,2 8 4 ZZO 1024,7 25 60 0,0
24.05.2018 09:00:00 13,1 8,7 - - 8 4 OZO 1024,9 35 60 0,0
24.05.2018 08:00:00 11,1 8,7 - - 5 3 O 1025,2 30 60 0,0
24.05.2018 07:00:00 7,5 7,0 - - 9 5 ZO 1025,5 30 60 0,0
24.05.2018 06:00:00 6,1 6,0 - - 11 6 ZO 1025,8 20 18 0,0
24.05.2018 05:00:00 3,3 3,2 - - 5 3 OZO 1026,1 0,4 0 0,0
24.05.2018 04:00:00 3,2 2,9 - - 4 2 OZO 1026,6 1,3 0 0,0
24.05.2018 03:00:00 3,6 3,2 - - 4 2 ZO 1026,8 4,5 0 0,0
24.05.2018 02:00:00 4,4 3,8 - - 4 2 ZZO 1027,0 6 0 0,0
24.05.2018 01:00:00 4,4 3,6 - - 2 1 NW 1027,5 20 - 0,0
24.05.2018 00:00:00 5,7 4,4 - - 2 1 N 1027,3 15 0 0,0
23.05.2018 23:00:00 7,4 5,6 - - 8 4 NNW 1027,1 45 0 0,0
23.05.2018 22:00:00 9,7 5,7 - - 5 3 NNW 1026,8 50 0 0,0
23.05.2018 21:00:00 13,7 7,2 - - 9 5 Z 1026,2 45 60 0,0
23.05.2018 20:00:00 16,2 8,1 - - 11 6 WNW 1025,8 35 60 0,0
23.05.2018 19:00:00 16,5 8,0 - - 18 10 NW 1025,6 45 60 0,0
23.05.2018 18:00:00 18,6 7,8 - - 8 4 ONO 1025,6 30 42 0,0
23.05.2018 17:00:00 17,8 7,2 - - 8 4 ZO 1026,1 40 42 0,0
23.05.2018 16:00:00 18,1 6,9 - - 9 5 ZO 1026,4 50 54 0,0
23.05.2018 15:00:00 17,4 6,9 - - 5 3 NNW 1026,7 24 54 0,0
23.05.2018 14:00:00 17,1 7,6 - - 9 5 ZZO 1027,0 35 24 0,0
23.05.2018 13:00:00 14,8 7,4 - - 4 2 ZW 1027,3 50 18 0,0
23.05.2018 12:00:00 15,1 8,0 - - 8 4 ZZW 1027,5 50 54 0,0
23.05.2018 11:00:00 13,7 7,0 - - 13 7 Z 1027,7 50 60 0,0
23.05.2018 10:00:00 11,9 6,1 10,5 9,2 11 6 Z 1027,6 35 60 0,0
23.05.2018 09:00:00 11,8 7,0 - - 4 2 OZO 1027,6 40 60 0,0
23.05.2018 08:00:00 10,0 6,0 - - 5 3 ZO 1027,7 30 60 0,0
23.05.2018 07:00:00 7,1 6,3 - - 5 3 W 1027,3 35 18 0,0
23.05.2018 06:00:00 5,1 4,2 - - 4 2 NNW 1027,3 50 0 0,0
23.05.2018 05:00:00 5,5 3,9 - - 9 5 NNW 1027,0 22 0 0,0
23.05.2018 04:00:00 7,8 5,4 - - 5 3 NNO 1027,1 30 0 0,0
23.05.2018 03:00:00 7,9 5,3 - - 15 8 NO 1027,2 50 0 0,0
23.05.2018 02:00:00 7,9 5,0 - - 13 7 O 1027,4 30 0 0,0
23.05.2018 01:00:00 7,9 4,7 - - 13 7 ONO 1027,5 50 - 0,0
23.05.2018 00:00:00 7,8 4,6 - - 13 7 O 1027,7 50 0 0,0
22.05.2018 23:00:00 8,1 4,3 - - 16 9 O 1027,8 50 0 0,0
22.05.2018 22:00:00 8,3 4,7 - - 15 8 O 1027,6 50 0 0,0
22.05.2018 21:00:00 8,9 4,7 - - 22 12 O 1027,3 45 0 0,0
22.05.2018 20:00:00 9,5 5,2 - - 24 13 O 1026,8 45 0 0,0
22.05.2018 19:00:00 10,2 5,2 - - 18 10 ONO 1026,6 45 0 0,0
22.05.2018 18:00:00 10,7 5,3 - - 22 12 ONO 1026,6 30 0 0,0
22.05.2018 17:00:00 10,6 4,8 - - 15 8 ONO 1027,0 27 0 0,0
22.05.2018 16:00:00 10,8 5,6 - - 16 9 ONO 1027,2 50 0 0,0
22.05.2018 15:00:00 10,0 5,1 - - 18 10 ONO 1027,5 35 0 0,0
22.05.2018 14:00:00 10,0 5,5 - - 15 8 ONO 1027,7 45 0 0,0
22.05.2018 13:00:00 9,7 5,3 - - 15 8 NO 1027,3 45 0 0,0
22.05.2018 12:00:00 9,3 5,0 - - 16 9 NO 1027,3 45 0 0,0
22.05.2018 11:00:00 8,8 5,0 - - 16 9 NO 1027,7 35 0 0,0
22.05.2018 10:00:00 8,6 4,9 10,7 9,2 21 11 NNO 1027,7 35 6 0,0
22.05.2018 09:00:00 9,0 5,8 - - 21 11 NNO 1028,0 50 12 0,0
22.05.2018 08:00:00 7,5 4,7 - - 15 8 NNO 1027,8 50 0 0,0
22.05.2018 07:00:00 7,0 5,6 - - 13 7 NO 1028,0 45 0 0,2
22.05.2018 06:00:00 6,0 5,5 - - 8 4 N 1027,8 50 0 0,0

tt = temperatuur
td = dauwpunt
tt -20cm = temperatuur -20cm
tt -100cm = temperatuur -100cm
ff = windsnelheid
dd = windrichting
ppp = luchtdruk
vv = zicht
sd = Zonneschijnduur
rr = neerslag

Weerstations in de omgeving